Location: Clifton Park
(41.4873°N, 81.8024°W)
Time: 19:51:14
(UTC+00:00)

STARLINK-32 - Pass Details

Date: 21 January 2020
Orbit: 528 x 531 km, 53.0° (Epoch: 28 February)

Event Time Altitude Azimuth Distance (km) Brightness Sun altitude
Exits shadow 10:55:53 57° 225° (SW) 626 3.6 -20.9°
Maximum altitude 10:56:39 86° 142° (SE) 535 3.4 -20.7°
Drops below altitude 10° 11:00:42 10° 53° (NE) 1,780 6.8 -20.0°
Sets 11:02:55 0° 53° (NE) 2,673 7.8 -19.6°
